sat.trackr.live / text

‹ back to catalog

RADIO ROSTO (RS15)

NORAD 23439 · 1994-085A

PAYLOAD ACTIVE UNKNOWN

§ Identity

Operator
Country
CIS
Launch date
1994-12-26
Launch site
TYMSC
Launch vehicle
Mass (kg)
RCS (m²)
0.62

Purposes: comms

External: N2YO · Heavens-Above · Gunter

§ Orbital elements

Epoch: 2026-09-13T02:17:33.576000Z

Period
127.71 min
Inclination
64.8161°
Eccentricity
0.0159073
Mean motion
11.27584001 rev/d
Perigee alt
1,888.7 km
Apogee alt
2,155.9 km
Semi-major
8,400.5 km
B*
-1.2148e-4
RAAN
161.0428°
Arg perigee
348.0632°
Mean anomaly
11.6541°
Rev number
30,581

§ Raw data

RADIO ROSTO (RS15)1 23439U 94085A   26256.09552750 -.00000047  00000+0 -12148-3 0  99922 23439  64.8161 161.0428 0159073 348.0632  11.6541 11.27584001305816

JSON: /api/v1/satellites/23439 · /tle

For live sub-satellite position, see the globe view (requires WebGL).

§ Visibility from observer

Set your observer location to see the next 7 days of passes ≥ 10°. The values pass through the URL so the page stays shareable.

No JS? Fill the form by hand. The geolocation button needs JavaScript.

§ Radio — SatNOGS DB

ModeDescriptionDownlinkUplink
CW Mode T TLM 1 29.353 MHz
CW Mode T TLM 2 (inactive) 29.399 MHz
USB V/T (Mode A) Transponder (inactive) 29.354 MHz–29.394 MHz 145.858 MHz–145.898 MHz

3 transmitters · refreshed weekly from db.satnogs.org